Date String (YYYY-MM-DD hh:mm:ss) UTC,Instrument flags,absolute air pressure of the measurement (hPa),sample flow rate (lpm),inlet stack bypass flow (lpm),air temperature of the measurement (°C),ambient temperature measured by the external sensor (°C),aerosol sample conditioner tube jacket temperature (°C),OPC LED temperature (°C),internal box temperature (°C),relative humidity of the measurement (%),span deviation,mass concentration of particles derived from Lorenz-Mie calculation of OPC scattering (μg/m³),mass concentration of particles derived from Lorenz-Mie calculation of OPC scattering (μg/m³),mass concentration of particles derived from Lorenz-Mie calculation of OPC scattering (μg/m³)
DateTimeUTC,F1_M11,P_M11,Q1_M11,Q2_M11,T1_M11,T2_M11,T3_M11,T4_M11,T5_M11,U1_M11,ZSPAN_M11,X0_M11,X2_M11,X1_M11
2023-12-19 18:00:00,SystemResetWarning,0826.0,4.99,000.00,025.0,024.3,000.0,033.1,026.4,8.5,0000.0,0001.78,0001.24,0000.95
2023-12-19 18:01:00,SystemResetWarning,0826.0,5.00,000.00,025.0,024.3,000.0,033.2,026.4,8.5,0000.0,0001.76,0001.22,0000.94
2023-12-19 18:02:00,SystemResetWarning,0826.0,5.00,000.00,025.0,024.3,000.0,033.2,026.5,8.7,0000.0,0001.65,0001.17,0000.92
2023-12-19 18:03:00,SystemResetWarning,0826.0,5.01,000.00,025.0,024.3,000.0,033.2,026.5,8.9,0000.0,0001.61,0001.15,0000.90
2023-12-19 18:04:00,SystemResetWarning,0826.0,5.01,000.00,025.0,024.3,000.0,033.2,026.5,8.5,0000.0,0001.55,0001.12,0000.88
2023-12-19 18:05:00,SystemResetWarning,0826.0,4.99,000.00,025.0,024.3,000.0,033.2,026.5,8.6,0000.0,0001.50,0001.09,0000.87
2023-12-19 18:06:00,SystemResetWarning,0826.0,4.99,000.00,025.0,024.4,000.0,033.2,026.5,8.7,0000.0,0001.46,0001.06,0000.85
2023-12-19 18:07:00,SystemResetWarning,0826.0,5.01,000.00,025.0,024.4,000.0,033.2,026.5,8.6,0000.0,0001.46,0001.03,0000.83
2023-12-19 18:08:00,SystemResetWarning,0826.0,5.01,000.00,025.1,024.4,000.0,033.2,026.5,8.9,0000.0,0001.54,0001.06,0000.84
2023-12-19 18:09:00,SystemResetWarning,0826.0,5.00,000.00,025.1,024.4,000.0,033.2,026.5,9.0,0000.0,0001.57,0001.07,0000.85
2023-12-19 18:10:00,SystemResetWarning,0826.0,4.99,000.00,025.1,024.4,000.0,033.3,026.5,9.2,0000.0,0001.65,0001.08,0000.86
2023-12-19 18:11:00,SystemResetWarning,0826.0,4.99,000.00,025.1,024.4,000.0,033.3,026.5,9.0,0000.0,0001.76,0001.12,0000.87
2023-12-19 18:12:00,SystemResetWarning,0826.0,5.01,000.00,025.1,024.4,000.0,033.3,026.6,9.0,0000.0,0002.00,0001.19,0000.91
2023-12-19 18:13:00,SystemResetWarning,0826.0,5.01,000.00,025.1,024.4,000.0,033.3,026.6,9.0,0000.0,0002.27,0001.25,0000.93
2023-12-19 18:14:00,SystemResetWarning,0826.0,5.01,000.00,025.1,024.4,000.0,033.3,026.5,9.1,0000.0,0002.46,0001.30,0000.95
2023-12-19 18:15:00,SystemResetWarning,0825.9,5.00,000.00,025.1,024.5,000.0,033.3,026.6,9.0,0000.0,0002.79,0001.36,0000.97
2023-12-19 18:16:00,SystemResetWarning,0825.9,4.99,000.00,025.1,024.5,000.0,033.3,026.6,9.2,0000.0,0003.84,0001.45,0000.98
2023-12-19 18:17:00,SystemResetWarning,0825.9,5.00,000.00,025.2,024.5,000.0,033.3,026.6,8.9,0000.0,0004.01,0001.49,0001.00
2023-12-19 18:18:00,SystemResetWarning,0825.8,5.00,000.00,025.2,024.5,000.0,033.3,026.6,8.9,0000.0,0004.09,0001.51,0001.00
2023-12-19 18:19:00,SystemResetWarning,0825.9,5.00,000.00,025.2,024.5,000.0,033.3,026.6,9.0,0000.0,0004.11,0001.53,0001.01
2023-12-19 18:20:00,SystemResetWarning,0825.9,5.00,000.00,025.2,024.5,000.0,033.4,026.6,9.0,0000.0,0004.03,0001.52,0001.00
2023-12-19 18:21:00,SystemResetWarning,0825.8,4.99,000.00,025.2,024.5,000.0,033.4,026.7,9.0,0000.0,0004.07,0001.53,0001.01
2023-12-19 18:22:00,SystemResetWarning,0825.9,5.00,000.00,025.2,024.6,000.0,033.4,026.7,9.0,0000.0,0003.91,0001.48,0001.00
2023-12-19 18:23:00,SystemResetWarning,0825.9,5.00,000.00,025.3,024.6,000.0,033.4,026.7,8.8,0000.0,0003.81,0001.46,0000.98
2023-12-19 18:24:00,SystemResetWarning,0825.9,5.02,000.00,025.3,024.6,000.0,033.4,026.7,8.8,0000.0,0003.65,0001.44,0000.96
2023-12-19 18:25:00,SystemResetWarning,0825.9,4.99,000.00,025.3,024.6,000.0,033.4,026.7,8.9,0000.0,0003.50,0001.40,0000.94
2023-12-19 18:26:00,SystemResetWarning,0826.0,4.99,000.00,025.3,024.6,000.0,033.4,026.8,9.2,0000.0,0003.36,0001.38,0000.93
2023-12-19 18:27:00,SystemResetWarning,0825.9,5.01,000.00,025.3,024.6,000.0,033.5,026.7,9.4,0000.0,0002.74,0001.31,0000.93
2023-12-19 18:28:00,SystemResetWarning,0825.9,5.01,000.00,025.3,024.6,000.0,033.5,026.7,9.4,0000.0,0003.12,0001.35,0000.93
2023-12-19 18:29:00,SystemResetWarning,0825.9,5.00,000.00,025.3,024.6,000.0,033.5,026.7,9.6,0000.0,0003.19,0001.35,0000.92
2023-12-19 18:30:00,SystemResetWarning,0825.9,4.99,000.00,025.4,024.6,000.0,033.5,026.7,9.6,0000.0,0003.10,0001.31,0000.91
2023-12-19 18:31:00,SystemResetWarning,0825.9,4.99,000.00,025.4,024.7,000.0,033.5,026.8,9.9,0000.0,0003.10,0001.30,0000.90
2023-12-19 18:32:00,SystemResetWarning,0825.9,5.01,000.00,025.4,024.7,000.0,033.5,026.8,9.5,0000.0,0002.92,0001.22,0000.86
2023-12-19 18:33:00,SystemResetWarning,0825.9,5.01,000.00,025.4,024.7,000.0,033.5,026.8,9.2,0000.0,0002.84,0001.18,0000.82
2023-12-19 18:34:00,SystemResetWarning,0826.0,5.00,000.00,025.4,024.7,000.0,033.6,026.8,9.4,0000.0,0002.79,0001.14,0000.79
2023-12-19 18:35:00,SystemResetWarning,0825.9,5.00,000.00,025.4,024.7,000.0,033.6,026.8,9.6,0000.0,0002.71,0001.11,0000.77
2023-12-19 18:36:00,SystemResetWarning,0825.9,4.99,000.00,025.4,024.7,000.0,033.6,026.8,9.4,0000.0,0002.69,0001.08,0000.75
2023-12-19 18:37:00,SystemResetWarning,0825.9,4.99,000.00,025.4,024.7,000.0,033.6,026.8,9.7,0000.0,0002.66,0001.05,0000.73
2023-12-19 18:38:00,SystemResetWarning,0825.9,5.00,000.00,025.5,024.7,000.0,033.6,026.8,9.6,0000.0,0002.33,0000.99,0000.70
2023-12-19 18:39:00,SystemResetWarning,0825.9,5.01,000.00,025.5,024.7,000.0,033.6,026.8,9.5,0000.0,0002.10,0000.90,0000.66
2023-12-19 18:40:00,SystemResetWarning,0825.8,5.01,000.00,025.5,024.7,000.0,033.6,026.8,9.6,0000.0,0001.83,0000.84,0000.64
2023-12-19 18:41:00,SystemResetWarning,0825.8,5.00,000.00,025.5,024.7,000.0,033.6,026.8,9.4,0000.0,0001.75,0000.80,0000.62
2023-12-19 18:42:00,SystemResetWarning,0825.8,4.99,000.00,025.5,024.7,000.0,033.6,026.9,9.7,0000.0,0001.69,0000.76,0000.59
2023-12-19 18:43:00,SystemResetWarning,0825.7,4.99,000.00,025.5,024.7,000.0,033.7,026.9,9.7,0000.0,0001.73,0000.77,0000.59
2023-12-19 18:44:00,SystemResetWarning,0825.7,4.99,000.00,025.5,024.7,000.0,033.7,026.8,9.7,0000.0,0001.76,0000.78,0000.59
2023-12-19 18:45:00,SystemResetWarning,0825.7,5.00,000.00,025.5,024.7,000.0,033.7,026.9,9.7,0000.0,0001.79,0000.77,0000.60
2023-12-19 18:46:00,SystemResetWarning,0825.7,5.01,000.00,025.5,024.7,000.0,033.7,026.9,9.7,0000.0,0001.82,0000.76,0000.59
2023-12-19 18:47:00,SystemResetWarning,0825.6,4.99,000.00,025.5,024.7,000.0,033.7,026.9,9.6,0000.0,0001.78,0000.74,0000.58
2023-12-19 18:48:00,SystemResetWarning,0825.6,4.99,000.00,025.5,024.7,000.0,033.7,026.8,9.6,0000.0,0001.78,0000.74,0000.58
2023-12-19 18:49:00,SystemResetWarning,0825.6,4.99,000.00,025.5,024.7,000.0,033.7,026.9,9.9,0000.0,0001.84,0000.78,0000.58
2023-12-19 18:50:00,SystemResetWarning,0825.6,5.01,000.00,025.5,024.7,000.0,033.7,026.9,10.0,0000.0,0001.35,0000.79,0000.58
2023-12-19 18:51:00,SystemResetWarning,0825.6,5.01,000.00,025.5,024.7,000.0,033.7,026.9,9.9,0000.0,0001.35,0000.78,0000.57
2023-12-19 18:52:00,SystemResetWarning,0825.6,5.00,000.00,025.6,024.7,000.0,033.7,026.9,9.7,0000.0,0001.34,0000.77,0000.57
2023-12-19 18:53:00,SystemResetWarning,0825.6,4.99,000.00,025.6,024.7,000.0,033.8,026.8,9.7,0000.0,0001.38,0000.79,0000.58
2023-12-19 18:54:00,SystemResetWarning,0825.6,4.99,000.00,025.6,024.7,000.0,033.8,026.9,9.7,0000.0,0001.48,0000.83,0000.58
2023-12-19 18:55:00,SystemResetWarning,0825.6,5.00,000.00,025.6,024.7,000.0,033.8,026.9,9.7,0000.0,0001.61,0000.88,0000.59
2023-12-19 18:56:00,SystemResetWarning,0825.7,5.01,000.00,025.6,024.7,000.0,033.8,026.9,9.9,0000.0,0001.59,0000.90,0000.59
2023-12-19 18:57:00,SystemResetWarning,0825.7,5.01,000.00,025.6,024.7,000.0,033.8,026.9,9.8,0000.0,0001.46,0000.88,0000.59
2023-12-19 18:58:00,SystemResetWarning,0825.7,4.99,000.00,025.6,024.7,000.0,033.8,026.9,9.7,0000.0,0001.44,0000.88,0000.60
2023-12-19 18:59:00,SystemResetWarning,0825.7,4.99,000.00,025.6,024.7,000.0,033.8,026.9,9.8,0000.0,0001.38,0000.86,0000.59
